Regional Weather Roundup
Issued by NWS

Home | Current Version | Previous Version | Graphics & Text | Print | Product List | Glossary On
Versions: 1 2 3 4 5 6 7 8 9 10 11 12 13 14 15 16 17 18 19 20 21 22 23 24 25 26 27 28 29 30 31 32 33 34 35 36 37 38 39 40 41 42 43 44 45 46 47 48 49 50
371
ASUS44 KLIX 271610
RWRLA
LOUISIANA WEATHER ROUNDUP
NATIONAL WEATHER SERVICE NEW ORLEANS LA
1000 AM CST FRI FEB 27 2015

NOTE: "FAIR" INDICATES FEW OR NO CLOUDS BELOW 12,000 FEET WITH NO
      SIGNIFICANT WEATHER AND/OR OBSTRUCTIONS TO VISIBILITY.
      SKY/WX - SKY CONDITION AND SIGNIFICANT WEATHER.
      TMP - AIR TEMPERATURE.    DP   - DEWPOINT TEMPERATURE.
      RH  - RELATIVE HUMIDITY.  PRES - PRESSURE.
      HX  - HEAT INDEX.         WCI  - WIND CHILL INDEX.

*  THESE STATIONS ARE NOT NWS OR FAA STATIONS AND ARE NOT UNDER
   NWS QUALITY CONTROL.

LAZ040-048-061>063-065-066-069-271700-
SOUTHEAST LOUISIANA

CITY           SKY/WX    TMP DP  RH WIND       PRES   REMARKS
N.O. AUDUBON     N/A     47  35  63 MISG        N/A
N.O. INTL ARPT PTSUNNY   43  32  65 NE18      30.41R
N.O. LAKEFRONT SUNNY     44  32  62 NE16      30.41R
SLIDELL        SUNNY     44  31  60 N15G21    30.40S
BATON ROUGE    CLOUDY    40  31  70 NE8       30.44R WCI  34
BOOTHVILLE     CLOUDY    45  38  76 NE14G21   30.38R
BELLE CHASSE   SUNNY     45  31  58 NE16      30.39R
BOGALUSA*        N/A     41  31  69 E7        30.45S
GALLIANO*      PTSUNNY   46  35  65 MISG      30.40R
NEW ROADS*     CLOUDY    37  28  71 N8        30.46R WCI  31
GONZALES*      FAIR      42  32  68 N7        30.42R
HAMMOND*       CLOUDY    41  32  70 N13G18    30.44S
HOUMA*         MOSUNNY   45  34  65 NE16      30.39R
PORT FOURCHON* CLOUDY    45  37  76 NE16      30.42R

$$

LAZ041-044-053-054-271700-
SOUTHWEST LOUISIANA

CITY           SKY/WX    TMP DP  RH WIND       PRES   REMARKS
LAKE CHARLES   CLOUDY    39  30  70 NE16      30.43R WCI  30
LAFAYETTE      PTSUNNY   40  31  70 NE10      30.43R WCI  33
PATTERSON      PTSUNNY   41  34  75 NE16      30.41S
SALT POINT       N/A     42  32  67 E9G16     30.39R
NEW IBERIA     MOSUNNY   42  31  64 NE13      30.43R
CHENAULT AIRPK CLOUDY    37  30  75 NE7       30.44R WCI  32

$$

LAZ027-028-271700-
CENTRAL LOUISIANA

CITY           SKY/WX    TMP DP  RH WIND       PRES   REMARKS
FORT POLK      MOSUNNY   34  25  69 NE9       30.43S WCI  26
ALEXANDRIA INT MOSUNNY   36  24  62 NE8       30.46S WCI  30
ALEXANDRIA     MOSUNNY   34  23  64 NE12G21   30.48R WCI  25

$$

LAZ001-002-271700-
NORTHWEST LOUISIANA

CITY           SKY/WX    TMP DP  RH WIND       PRES   REMARKS
SHREVEPORT     PTSUNNY   32  21  64 NE13G21   30.49F WCI  22
BARKSDALE AFB  CLOUDY    30  19  63 E13G18    30.50F WCI  20
DTN SHREVEPORT PTSUNNY   30  18  60 NE8       30.51F WCI  22

$$

LAZ014-016-271700-
NORTHEAST LOUISIANA

CITY           SKY/WX    TMP DP  RH WIND       PRES   REMARKS
MONROE         CLOUDY    30  23  75 NE10      30.55R WCI  21
TALLULAH       CLOUDY    30  23  75 NE9       30.52S WCI  22

$$




USA.gov is the U.S. government's official web portal to all federal, state and local government web resources and services.